| time (UTC) | temp F | wind direction | speed MPH | gust MPH | rain 1hr in | rain 24hr in | rain mn in | humidity % | barometer mb |
| 20260901205555 | 58 | 338 | 0.0 | 2.0 | 0.00 | 0.04 | 0.04 | 92 | 1023.1 |
| 20260901204553 | 58 | 0.0 | 0.0 | 0.00 | 0.04 | 0.04 | 91 | 1023.2 | |
| 20260901203551 | 58 | 338 | 0.0 | 2.0 | 0.00 | 0.04 | 0.04 | 90 | 1023.2 |
| 20260901202549 | 59 | 0.0 | 0.0 | 0.00 | 0.04 | 0.04 | 88 | 1023.2 | |
| 20260901201547 | 60 | 338 | 1.0 | 2.0 | 0.00 | 0.04 | 0.04 | 87 | 1023.1 |
| 20260901200605 | 60 | 338 | 1.0 | 2.0 | 0.00 | 0.04 | 0.04 | 86 | 1023.2 |
| 20260901195603 | 60 | 338 | 0.0 | 2.0 | 0.00 | 0.04 | 0.04 | 85 | 1023.2 |
| 20260901194541 | 0 | 0.0 | 0.0 | 0.00 | 0.04 | 0.04 | 1027.2 | ||
| 20260901193539 | 63 | 248 | 2.0 | 2.0 | 0.00 | 0.04 | 0.04 | 80 | 1023.3 |
| 20260901192537 | 63 | 263 | 1.0 | 2.0 | 0.00 | 0.04 | 0.04 | 80 | 1023.3 |
| 20260901191535 | 63 | 263 | 2.0 | 6.0 | 0.00 | 0.04 | 0.04 | 81 | 1023.1 |
| 20260901190533 | 62 | 248 | 0.0 | 2.0 | 0.00 | 0.04 | 0.04 | 83 | 1023.0 |
| 20260901185531 | 62 | 248 | 0.0 | 2.0 | 0.00 | 0.04 | 0.04 | 83 | 1023.0 |
| 20260901184609 | 62 | 0.0 | 0.0 | 0.00 | 0.04 | 0.04 | 82 | 1022.9 | |
| 20260901183527 | 63 | 264 | 2.0 | 4.0 | 0.00 | 0.04 | 0.04 | 80 | 1022.9 |
| 20260901182525 | 63 | 268 | 3.0 | 6.0 | 0.00 | 0.04 | 0.04 | 80 | 1022.7 |
| 20260901181523 | 63 | 269 | 2.0 | 4.0 | 0.00 | 0.04 | 0.04 | 80 | 1022.5 |
| 20260901180541 | 63 | 264 | 1.0 | 4.0 | 0.00 | 0.04 | 0.04 | 80 | 1022.5 |
| 20260901175519 | 64 | 256 | 1.0 | 4.0 | 0.00 | 0.04 | 0.04 | 79 | 1022.5 |
| 20260901174537 | 64 | 241 | 1.0 | 4.0 | 0.00 | 0.04 | 0.04 | 79 | 1022.6 |
| 20260901173555 | 64 | 252 | 1.0 | 4.0 | 0.00 | 0.04 | 0.04 | 78 | 1022.4 |
| 20260901172613 | 65 | 246 | 1.0 | 2.0 | 0.00 | 0.04 | 0.04 | 78 | 1022.2 |
| 20260901171611 | 65 | 268 | 2.0 | 2.0 | 0.00 | 0.04 | 0.04 | 79 | 1022.3 |
| 20260901170609 | 64 | 248 | 0.0 | 2.0 | 0.00 | 0.04 | 0.04 | 81 | 1022.2 |
| 20260901165607 | 64 | 248 | 1.0 | 4.0 | 0.00 | 0.04 | 0.04 | 81 | 1022.2 |
| 20260901164605 | 64 | 240 | 1.0 | 2.0 | 0.00 | 0.04 | 0.04 | 79 | 1022.2 |
| 20260901163603 | 65 | 281 | 3.0 | 6.0 | 0.00 | 0.04 | 0.04 | 77 | 1022.3 |
| 20260901162601 | 65 | 270 | 1.0 | 2.0 | 0.00 | 0.04 | 0.04 | 77 | 1022.2 |
| 20260901161559 | 65 | 255 | 1.0 | 2.0 | 0.00 | 0.05 | 0.04 | 78 | 1022.1 |
| 20260901160557 | 65 | 0.0 | 2.0 | 0.00 | 0.06 | 0.04 | 79 | 1022.2 | |
| 20260901155555 | 65 | 0.0 | 2.0 | 0.00 | 0.07 | 0.04 | 79 | 1022.0 | |
| 20260901154553 | 65 | 248 | 2.0 | 4.0 | 0.00 | 0.08 | 0.04 | 78 | 1022.1 |
| 20260901153551 | 64 | 269 | 2.0 | 4.0 | 0.00 | 0.08 | 0.04 | 78 | 1022.1 |
| 20260901152549 | 64 | 240 | 2.0 | 6.0 | 0.00 | 0.08 | 0.04 | 77 | 1022.1 |
| 20260901151547 | 65 | 262 | 3.0 | 7.0 | 0.00 | 0.08 | 0.04 | 76 | 1022.1 |
| 20260901150544 | 66 | 254 | 2.0 | 4.0 | 0.00 | 0.08 | 0.04 | 73 | 1021.9 |
| 20260901145602 | 66 | 270 | 3.0 | 6.0 | 0.00 | 0.08 | 0.04 | 72 | 1022.0 |
| 20260901144540 | 66 | 274 | 5.0 | 9.0 | 0.00 | 0.08 | 0.04 | 73 | 1022.0 |
| 20260901143538 | 66 | 255 | 5.0 | 9.0 | 0.00 | 0.08 | 0.04 | 73 | 1022.1 |
| 20260901142537 | 67 | 264 | 4.0 | 11.0 | 0.00 | 0.08 | 0.04 | 74 | 1022.1 |
| 20260901141535 | 69 | 261 | 6.0 | 13.0 | 0.00 | 0.24 | 0.04 | 69 | 1022.1 |
| 20260901140532 | 70 | 263 | 4.0 | 7.0 | 0.00 | 0.24 | 0.04 | 69 | 1022.0 |
| 20260901135530 | 70 | 272 | 4.0 | 7.0 | 0.00 | 0.24 | 0.04 | 68 | 1021.9 |
| 20260901134608 | 72 | 261 | 3.0 | 8.0 | 0.00 | 0.24 | 0.04 | 65 | 1022.0 |
| 20260901133526 | 72 | 261 | 3.0 | 7.0 | 0.00 | 0.24 | 0.04 | 65 | 1022.1 |
| 20260901132545 | 72 | 270 | 4.0 | 6.0 | 0.00 | 0.24 | 0.04 | 66 | 1022.0 |
| 20260901131522 | 70 | 262 | 4.0 | 8.0 | 0.00 | 0.24 | 0.04 | 66 | 1022.0 |
| 20260901130520 | 71 | 241 | 2.0 | 4.0 | 0.00 | 0.24 | 0.04 | 66 | 1021.9 |
| 20260901125518 | 72 | 257 | 3.0 | 6.0 | 0.00 | 0.24 | 0.04 | 64 | 1022.0 |
| 20260901124516 | 74 | 262 | 3.0 | 6.0 | 0.00 | 0.24 | 0.04 | 62 | 1022.1 |
| 20260901123634 | 73 | 248 | 4.0 | 8.0 | 0.00 | 0.24 | 0.04 | 65 | 1022.0 |
| 20260901122632 | 71 | 234 | 4.0 | 8.0 | 0.00 | 0.24 | 0.04 | 66 | 1021.9 |
| 20260901121610 | 70 | 273 | 4.0 | 8.0 | 0.00 | 0.24 | 0.04 | 67 | 1022.0 |
| 20260901120608 | 70 | 257 | 3.0 | 8.0 | 0.00 | 0.24 | 0.04 | 67 | 1022.0 |
| 20260901115606 | 70 | 263 | 3.0 | 6.0 | 0.00 | 0.24 | 0.04 | 66 | 1022.0 |
| 20260901114604 | 70 | 256 | 4.0 | 8.0 | 0.00 | 0.24 | 0.04 | 66 | 1021.9 |
| 20260901113602 | 70 | 277 | 3.0 | 6.0 | 0.00 | 0.24 | 0.04 | 68 | 1022.1 |
| 20260901112600 | 69 | 270 | 3.0 | 8.0 | 0.00 | 0.24 | 0.04 | 68 | 1022.1 |
| 20260901111558 | 69 | 263 | 3.0 | 6.0 | 0.00 | 0.24 | 0.04 | 69 | 1022.0 |
| 20260901110556 | 69 | 243 | 2.0 | 6.0 | 0.00 | 0.24 | 0.04 | 69 | 1022.0 |
| 20260901105555 | 69 | 271 | 4.0 | 8.0 | 0.00 | 0.24 | 0.04 | 71 | 1022.0 |
| 20260901104612 | 69 | 278 | 4.0 | 11.0 | 0.00 | 0.24 | 0.04 | 70 | 1021.9 |
| 20260901103610 | 70 | 263 | 4.0 | 9.0 | 0.00 | 0.24 | 0.04 | 70 | 1021.9 |
| 20260901102548 | 69 | 289 | 5.0 | 11.0 | 0.00 | 0.24 | 0.04 | 70 | 1022.0 |
| 20260901101546 | 68 | 242 | 4.0 | 11.0 | 0.00 | 0.24 | 0.04 | 71 | 1021.9 |
| 20260901100544 | 68 | 255 | 5.0 | 13.0 | 0.00 | 0.24 | 0.04 | 71 | 1021.9 |
| 20260901095542 | 68 | 295 | 5.0 | 11.0 | 0.00 | 0.24 | 0.04 | 72 | 1021.8 |
| 20260901094540 | 68 | 271 | 4.0 | 8.0 | 0.00 | 0.24 | 0.04 | 73 | 1021.8 |
| 20260901093538 | 67 | 293 | 3.0 | 8.0 | 0.00 | 0.24 | 0.04 | 75 | 1022.0 |
| 20260901092536 | 67 | 272 | 3.0 | 7.0 | 0.00 | 0.24 | 0.04 | 77 | 1022.0 |
| 20260901091534 | 66 | 274 | 4.0 | 7.0 | 0.00 | 0.24 | 0.04 | 77 | 1021.9 |
| 20260901090532 | 66 | 253 | 3.0 | 8.0 | 0.00 | 0.24 | 0.04 | 77 | 1021.8 |
| 20260901085530 | 66 | 267 | 2.0 | 7.0 | 0.00 | 0.24 | 0.04 | 77 | 1021.7 |
| 20260901084528 | 66 | 273 | 4.0 | 7.0 | 0.00 | 0.24 | 0.04 | 78 | 1021.8 |
| 20260901083546 | 66 | 235 | 3.0 | 7.0 | 0.00 | 0.24 | 0.04 | 78 | 1021.5 |
| 20260901082524 | 65 | 290 | 4.0 | 11.0 | 0.00 | 0.24 | 0.04 | 79 | 1021.5 |
| 20260901081522 | 64 | 259 | 5.0 | 14.0 | 0.00 | 0.25 | 0.04 | 80 | 1021.6 |
| 20260901080520 | 64 | 278 | 3.0 | 7.0 | 0.00 | 0.25 | 0.04 | 81 | 1021.3 |
| 20260901075518 | 64 | 245 | 4.0 | 11.0 | 0.00 | 0.25 | 0.04 | 82 | 1021.3 |
| 20260901074516 | 63 | 282 | 4.0 | 11.0 | 0.00 | 0.25 | 0.04 | 83 | 1021.3 |
| 20260901073634 | 63 | 273 | 2.0 | 6.0 | 0.00 | 0.25 | 0.04 | 84 | 1021.1 |
| 20260901072612 | 62 | 278 | 2.0 | 4.0 | 0.00 | 0.25 | 0.04 | 85 | 1021.2 |
| 20260901071610 | 62 | 257 | 2.0 | 6.0 | 0.00 | 0.25 | 0.04 | 86 | 1020.9 |
| 20260901070608 | 61 | 296 | 2.0 | 4.0 | 0.00 | 0.25 | 0.04 | 87 | 1021.0 |
| 20260901065606 | 61 | 274 | 2.0 | 6.0 | 0.00 | 0.25 | 0.04 | 88 | 1020.7 |
| 20260901064604 | 60 | 263 | 1.0 | 4.0 | 0.00 | 0.25 | 0.04 | 89 | 1020.8 |
| 20260901063602 | 60 | 251 | 2.0 | 4.0 | 0.00 | 0.25 | 0.04 | 89 | 1020.7 |
| 20260901062600 | 60 | 274 | 1.0 | 4.0 | 0.00 | 0.25 | 0.04 | 90 | 1020.6 |
| 20260901061618 | 60 | 270 | 1.0 | 4.0 | 0.00 | 0.25 | 0.04 | 90 | 1020.6 |
| 20260901060555 | 60 | 294 | 1.0 | 2.0 | 0.00 | 0.25 | 0.04 | 91 | 1020.5 |
| 20260901055553 | 59 | 277 | 1.0 | 4.0 | 0.00 | 0.25 | 0.04 | 92 | 1020.4 |
| 20260901054612 | 59 | 270 | 0.0 | 2.0 | 0.00 | 0.25 | 0.04 | 92 | 1020.4 |
| 20260901053550 | 59 | 270 | 0.0 | 2.0 | 0.00 | 0.25 | 0.04 | 92 | 1020.3 |
| 20260901052608 | 58 | 266 | 1.0 | 2.0 | 0.00 | 0.25 | 0.04 | 92 | 1020.2 |
| 20260901051546 | 58 | 263 | 1.0 | 2.0 | 0.00 | 0.25 | 0.04 | 92 | 1020.1 |
| 20260901050543 | 58 | 180 | 0.0 | 2.0 | 0.00 | 0.25 | 0.04 | 91 | 1020.1 |
| 20260901045541 | 59 | 189 | 1.0 | 4.0 | 0.00 | 0.25 | 0.04 | 91 | 1020.0 |
| 20260901044600 | 59 | 206 | 1.0 | 2.0 | 0.00 | 0.25 | 0.04 | 90 | 1019.9 |
| 20260901043538 | 59 | 264 | 1.0 | 4.0 | 0.00 | 0.25 | 0.04 | 89 | 1019.8 |
| 20260901042535 | 60 | 240 | 2.0 | 4.0 | 0.00 | 0.25 | 0.04 | 88 | 1019.7 |
| 20260901041533 | 60 | 268 | 3.0 | 6.0 | 0.00 | 0.25 | 0.04 | 88 | 1019.5 |
| 20260901040532 | 60 | 253 | 3.0 | 6.0 | 0.00 | 0.25 | 0.04 | 88 | 1019.4 |
| 20260901035549 | 60 | 271 | 3.0 | 6.0 | 0.00 | 0.25 | 0.04 | 88 | 1019.3 |
| 20260901034528 | 60 | 277 | 4.0 | 7.0 | 0.00 | 0.25 | 0.04 | 88 | 1019.2 |
| 20260901033525 | 60 | 271 | 3.0 | 6.0 | 0.00 | 0.25 | 0.04 | 88 | 1019.2 |
| 20260901032523 | 60 | 260 | 3.0 | 6.0 | 0.00 | 0.25 | 0.04 | 88 | 1019.1 |
| 20260901031521 | 60 | 260 | 3.0 | 7.0 | 0.00 | 0.25 | 0.04 | 89 | 1019.0 |
| 20260901030519 | 60 | 270 | 3.0 | 7.0 | 0.00 | 0.25 | 0.04 | 89 | 1019.1 |
| 20260901025517 | 60 | 249 | 3.0 | 7.0 | 0.00 | 0.25 | 0.04 | 89 | 1019.0 |
| 20260901024515 | 60 | 270 | 4.0 | 9.0 | 0.00 | 0.25 | 0.04 | 89 | 1019.0 |
| 20260901023613 | 60 | 257 | 2.0 | 6.0 | 0.00 | 0.25 | 0.04 | 89 | 1019.0 |
| 20260901022612 | 60 | 277 | 3.0 | 6.0 | 0.00 | 0.25 | 0.04 | 89 | 1018.9 |
| 20260901021630 | 60 | 283 | 3.0 | 6.0 | 0.00 | 0.25 | 0.04 | 90 | 1018.8 |
| 20260901020607 | 59 | 260 | 2.0 | 4.0 | 0.00 | 0.25 | 0.04 | 91 | 1018.9 |
| 20260901015605 | 59 | 258 | 1.0 | 4.0 | 0.00 | 0.25 | 0.04 | 91 | 1018.7 |
| 20260901014643 | 59 | 270 | 2.0 | 4.0 | 0.00 | 0.25 | 0.04 | 91 | 1018.7 |
| 20260901013641 | 59 | 309 | 2.0 | 4.0 | 0.02 | 0.25 | 0.04 | 93 | 1018.7 |
| 20260901012600 | 59 | 264 | 1.0 | 4.0 | 0.04 | 0.25 | 0.04 | 93 | 1018.7 |
| 20260901011557 | 59 | 260 | 1.0 | 2.0 | 0.04 | 0.25 | 0.04 | 94 | 1018.7 |
| 20260901010635 | 59 | 261 | 1.0 | 2.0 | 0.04 | 0.25 | 0.04 | 93 | 1018.8 |
| 20260901005553 | 59 | 270 | 1.0 | 2.0 | 0.04 | 0.25 | 0.04 | 92 | 1018.8 |
| 20260901004551 | 60 | 260 | 1.0 | 4.0 | 0.04 | 0.25 | 0.04 | 91 | 1018.7 |
| 20260901003549 | 60 | 256 | 1.0 | 4.0 | 0.01 | 0.22 | 0.01 | 89 | 1018.8 |
| 20260901002628 | 60 | 256 | 2.0 | 4.0 | 0.00 | 0.21 | 0.00 | 88 | 1018.6 |
| 20260901001545 | 60 | 266 | 2.0 | 4.0 | 0.00 | 0.21 | 0.00 | 89 | 1018.5 |
| 20260901000603 | 60 | 293 | 1.0 | 2.0 | 0.00 | 0.21 | 0.00 | 89 | 1018.5 |
| 20260831235601 | 60 | 278 | 1.0 | 4.0 | 0.00 | 0.21 | 0.00 | 89 | 1018.4 |
| 20260831234539 | 60 | 295 | 2.0 | 7.0 | 0.00 | 0.21 | 0.00 | 89 | 1018.4 |
| 20260831233537 | 60 | 266 | 3.0 | 6.0 | 0.00 | 0.21 | 0.00 | 89 | 1018.3 |
| 20260831232535 | 60 | 268 | 3.0 | 9.0 | 0.00 | 0.21 | 0.00 | 87 | 1018.3 |
| 20260831231533 | 60 | 292 | 3.0 | 6.0 | 0.00 | 0.21 | 0.00 | 86 | 1018.3 |
| 20260831230531 | 61 | 247 | 1.0 | 6.0 | 0.00 | 0.21 | 0.00 | 85 | 1018.3 |
| 20260831225529 | 61 | 315 | 1.0 | 4.0 | 0.00 | 0.21 | 0.00 | 84 | 1018.1 |
| 20260831224527 | 61 | 285 | 2.0 | 6.0 | 0.00 | 0.21 | 0.00 | 84 | 1018.2 |
| 20260831223525 | 60 | 269 | 2.0 | 4.0 | 0.00 | 0.21 | 0.00 | 85 | 1018.1 |
| 20260831222543 | 60 | 289 | 4.0 | 9.0 | 0.00 | 0.21 | 0.00 | 85 | 1017.9 |
| 20260831221521 | 60 | 282 | 4.0 | 9.0 | 0.00 | 0.21 | 0.00 | 87 | 1017.8 |
| 20260831220519 | 60 | 252 | 3.0 | 11.0 | 0.00 | 0.21 | 0.00 | 85 | 1017.8 |
| 20260831215517 | 60 | 282 | 5.0 | 11.0 | 0.00 | 0.21 | 0.21 | 85 | 1017.7 |
| 20260831214515 | 60 | 239 | 2.0 | 6.0 | 0.00 | 0.21 | 0.21 | 85 | 1017.6 |
| 20260831213613 | 60 | 274 | 2.0 | 8.0 | 0.00 | 0.21 | 0.21 | 85 | 1017.5 |
| 20260831212611 | 60 | 268 | 2.0 | 7.0 | 0.00 | 0.21 | 0.21 | 85 | 1017.4 |
| 20260831211629 | 60 | 291 | 1.0 | 2.0 | 0.00 | 0.21 | 0.21 | 85 | 1017.3 |
| 20260831210607 | 60 | 279 | 1.0 | 4.0 | 0.00 | 0.21 | 0.21 | 84 | 1017.3 |